M I D A S
Marine Information and Data Acquisition System
Tripno 1141 of the Zeeleeuw from 2006-07-26 06:50:28 to 2006-07-26 14:25:48
Back to CruiseResearch ActivitiesStationsMapUnderway DataData graphs

EquipmentUnitsComment
TimeDGPSUTC
LatitudeDGPSDM.mWGS84
LongitudeDGPSDM.mWGS84
HeadingGyrodeg 
SOGDGPSknotsSpeed over ground
COGDGPSdegCourse over ground
DepthEcho soundermeters200 kHz
Missing or incorrect values are displayed as -999
Navigation data collected by the RV Zeeleeuw from 2006-07-26 06:41:01 to 2006-07-26 14:37:47
                                                                                    Next 1000 lines
Time Latitude Longitude Heading SOG COG Depth
2006-07-26 06:41:11 51°13.602 2°56.094 104.5 0.6 294 -999
2006-07-26 06:41:16 51°13.603 2°56.092 104.3 0.9 292 -999
2006-07-26 06:41:21 51°13.603 2°56.09 104.1 1.3 291 -999
2006-07-26 06:41:26 51°13.604 2°56.086 104.1 1.6 289 -999
2006-07-26 06:41:31 51°13.605 2°56.082 103.9 2 288 -999
2006-07-26 06:41:36 51°13.606 2°56.077 103.7 2.2 287 -999
2006-07-26 06:41:41 51°13.607 2°56.072 103.7 2.4 287 -999
2006-07-26 06:41:46 51°13.608 2°56.067 103.8 2.5 286 -999
2006-07-26 06:41:51 51°13.609 2°56.061 104.5 2.6 287 -999
2006-07-26 06:41:56 51°13.61 2°56.055 104.9 2.7 287 -999
2006-07-26 06:42:01 51°13.611 2°56.049 105.1 2.9 287 -999
2006-07-26 06:42:06 51°13.612 2°56.042 105.2 3 287 -999
2006-07-26 06:42:11 51°13.614 2°56.036 105.2 3.2 287 -999
2006-07-26 06:42:16 51°13.615 2°56.028 105.2 3.3 287 -999
2006-07-26 06:42:21 51°13.616 2°56.021 105.3 3.5 286 -999
2006-07-26 06:42:26 51°13.618 2°56.013 105.7 3.6 286 -999
2006-07-26 06:42:31 51°13.619 2°56.005 106.5 3.7 286 -999
2006-07-26 06:42:36 51°13.62 2°55.998 107.4 3.7 286 -999
2006-07-26 06:42:41 51°13.622 2°55.99 108.4 3.7 287 -999
2006-07-26 06:42:46 51°13.623 2°55.982 109.5 3.6 287 -999
2006-07-26 06:42:51 51°13.625 2°55.975 110.9 3.6 289 -999
2006-07-26 06:42:56 51°13.627 2°55.968 112.1 3.5 290 -999
2006-07-26 06:43:01 51°13.628 2°55.96 113.2 3.5 291 -999
2006-07-26 06:43:06 51°13.63 2°55.953 114.6 3.5 292 -999
2006-07-26 06:43:11 51°13.632 2°55.946 116 3.5 293 -999
2006-07-26 06:43:16 51°13.634 2°55.939 117.4 3.5 295 -999
2006-07-26 06:43:21 51°13.636 2°55.932 118.4 3.5 295 -999
2006-07-26 06:43:26 51°13.638 2°55.925 119.7 3.5 297 -999
2006-07-26 06:43:31 51°13.641 2°55.918 120.4 3.6 298 -999
2006-07-26 06:43:36 51°13.643 2°55.911 121.1 3.6 299 -999
2006-07-26 06:43:41 51°13.645 2°55.904 121.8 3.6 299 -999
2006-07-26 06:43:46 51°13.648 2°55.897 122.6 3.7 300 -999
2006-07-26 06:43:51 51°13.65 2°55.89 123.3 3.7 301 -999
2006-07-26 06:43:56 51°13.653 2°55.884 124 3.7 301 -999
2006-07-26 06:44:01 51°13.656 2°55.877 124.6 3.7 302 -999
2006-07-26 06:44:06 51°13.659 2°55.87 125.3 3.7 303 -999
2006-07-26 06:44:11 51°13.661 2°55.863 125.6 3.7 303 -999
2006-07-26 06:44:16 51°13.664 2°55.856 125.6 3.6 304 -999
2006-07-26 06:44:21 51°13.667 2°55.85 125.6 3.6 304 -999
2006-07-26 06:44:26 51°13.67 2°55.843 125.6 3.6 304 -999
2006-07-26 06:44:31 51°13.673 2°55.837 125.5 3.6 304 -999
2006-07-26 06:44:36 51°13.675 2°55.83 125.4 3.6 304 -999
2006-07-26 06:44:41 51°13.679 2°55.823 125 3.8 304 -999
2006-07-26 06:44:46 51°13.682 2°55.816 124.6 4 304 -999
2006-07-26 06:44:51 51°13.685 2°55.809 124 3.9 304 -999
2006-07-26 06:44:56 51°13.687 2°55.802 123.6 3.8 303 -999
2006-07-26 06:45:01 51°13.69 2°55.795 123 3.6 303 -999
2006-07-26 06:45:06 51°13.693 2°55.788 122.5 3.5 303 -999
2006-07-26 06:45:11 51°13.695 2°55.782 121.9 3.4 303 -999
2006-07-26 06:45:16 51°13.698 2°55.776 121.2 3.3 302 -999
2006-07-26 06:45:21 51°13.7 2°55.77 120.6 3.2 302 -999
2006-07-26 06:45:26 51°13.702 2°55.765 120.1 3 302 -999
2006-07-26 06:45:31 51°13.704 2°55.76 119.6 2.8 301 -999
2006-07-26 06:45:36 51°13.706 2°55.755 118.8 2.5 301 -999
2006-07-26 06:45:41 51°13.707 2°55.751 117.5 2.2 302 -999
2006-07-26 06:45:46 51°13.709 2°55.748 116.1 1.8 302 -999
2006-07-26 06:45:51 51°13.71 2°55.745 113.9 1.5 302 -999
2006-07-26 06:45:56 51°13.71 2°55.743 112.1 1.3 303 -999
2006-07-26 06:46:01 51°13.711 2°55.741 109.5 0.9 306 -999
2006-07-26 06:46:06 51°13.712 2°55.74 106.6 0.7 312 -999
2006-07-26 06:46:11 51°13.712 2°55.74 102.9 0.4 335 -999
2006-07-26 06:46:16 51°13.713 2°55.74 99.5 0.3 -999 -999
2006-07-26 06:46:21 51°13.713 2°55.741 96.5 0.4 39 -999
2006-07-26 06:46:26 51°13.713 2°55.742 92.5 0.5 54 -999
2006-07-26 06:46:31 51°13.714 2°55.743 87.2 0.7 61 -999
2006-07-26 06:46:36 51°13.715 2°55.745 82.8 0.9 63 -999
2006-07-26 06:46:41 51°13.715 2°55.747 79 1.1 60 -999
2006-07-26 06:46:46 51°13.716 2°55.749 74 1.2 58 -999
2006-07-26 06:46:51 51°13.717 2°55.752 68.9 1.2 54 -999
2006-07-26 06:46:56 51°13.718 2°55.753 65.1 1.1 47 -999
2006-07-26 06:47:01 51°13.719 2°55.754 62.1 0.8 42 -999
2006-07-26 06:47:06 51°13.72 2°55.755 58.8 0.6 30 -999
2006-07-26 06:47:11 51°13.72 2°55.754 55.6 0.3 321 -999
2006-07-26 06:47:16 51°13.72 2°55.753 52.7 0.5 270 -999
2006-07-26 06:47:21 51°13.719 2°55.751 49.8 1 250 -999
2006-07-26 06:47:26 51°13.718 2°55.748 47.9 1.3 242 -999
2006-07-26 06:47:31 51°13.717 2°55.745 45.7 1.7 235 -999
2006-07-26 06:47:36 51°13.716 2°55.742 43.5 1.8 233 -999
2006-07-26 06:47:41 51°13.714 2°55.739 41.8 1.7 234 -999
2006-07-26 06:47:46 51°13.713 2°55.736 40.5 1.5 235 -999
2006-07-26 06:47:51 51°13.712 2°55.733 39.1 1.3 240 -999
2006-07-26 06:47:56 51°13.711 2°55.732 37.1 1 240 -999
2006-07-26 06:48:01 51°13.711 2°55.73 34.4 0.7 250 -999
2006-07-26 06:48:06 51°13.711 2°55.729 31.2 0.5 277 -999
2006-07-26 06:48:11 51°13.712 2°55.729 27.5 0.5 315 -999
2006-07-26 06:48:16 51°13.713 2°55.728 23.2 0.6 343 -999
2006-07-26 06:48:21 51°13.714 2°55.728 18.3 0.9 353 -999
2006-07-26 06:48:26 51°13.716 2°55.728 13.1 1.2 355 -999
2006-07-26 06:48:31 51°13.718 2°55.728 7.9 1.5 354 -999
2006-07-26 06:48:36 51°13.721 2°55.727 1.8 1.7 350 -999
2006-07-26 06:48:41 51°13.723 2°55.725 355.6 2 345 -999
2006-07-26 06:48:46 51°13.726 2°55.723 349.6 2.3 341 -999
2006-07-26 06:48:51 51°13.73 2°55.721 344.4 2.5 337 -999
2006-07-26 06:48:56 51°13.733 2°55.718 340.2 2.8 333 -999
2006-07-26 06:49:01 51°13.737 2°55.714 337.5 3.1 332 -999
2006-07-26 06:49:06 51°13.741 2°55.711 336 3.3 330 -999
2006-07-26 06:49:11 51°13.746 2°55.706 335.4 3.7 331 -999
2006-07-26 06:49:16 51°13.751 2°55.701 335.3 4.2 330 -999
2006-07-26 06:49:21 51°13.757 2°55.696 335.5 4.8 331 -999
2006-07-26 06:49:26 51°13.763 2°55.69 335.5 5.1 331 -999
2006-07-26 06:49:31 51°13.77 2°55.684 335.4 5.6 331 -999
2006-07-26 06:49:36 51°13.778 2°55.678 335.7 6 331 -999
2006-07-26 06:49:41 51°13.785 2°55.671 335.9 6.5 333 -999
2006-07-26 06:49:46 51°13.794 2°55.664 335.8 6.9 333 -999
2006-07-26 06:49:51 51°13.803 2°55.656 335.9 7.2 333 -999
2006-07-26 06:49:56 51°13.812 2°55.649 336.6 7.5 334 -999
2006-07-26 06:50:01 51°13.822 2°55.641 337.4 7.8 335 -999
2006-07-26 06:50:06 51°13.832 2°55.634 338 8.1 336 -999
2006-07-26 06:50:11 51°13.843 2°55.627 338.6 8.3 336 -999
2006-07-26 06:50:16 51°13.854 2°55.62 338.8 8.4 336 -999
2006-07-26 06:50:21 51°13.865 2°55.611 338.2 8.6 335 -999
2006-07-26 06:50:26 51°13.876 2°55.603 338.2 8.7 335 -999
2006-07-26 06:50:31 51°13.887 2°55.595 338.6 8.8 336 -999
2006-07-26 06:50:36 51°13.898 2°55.587 338.8 8.9 335 -999
2006-07-26 06:50:41 51°13.909 2°55.579 338.8 9 335 -999
2006-07-26 06:50:46 51°13.921 2°55.57 338.6 9.1 335 -999
2006-07-26 06:50:51 51°13.932 2°55.562 338.4 9.1 335 -999
2006-07-26 06:50:56 51°13.944 2°55.553 338.3 9.2 335 -999
2006-07-26 06:51:01 51°13.956 2°55.545 338.8 9.2 336 -999
2006-07-26 06:51:06 51°13.967 2°55.536 339 9.2 336 -999
2006-07-26 06:51:11 51°13.979 2°55.528 338.9 9.2 336 -999
2006-07-26 06:51:16 51°13.99 2°55.52 338.9 8.9 336 -999
2006-07-26 06:51:21 51°14.001 2°55.513 339.4 8.6 337 -999
2006-07-26 06:51:26 51°14.012 2°55.506 340.3 8.5 337 -999
2006-07-26 06:51:31 51°14.022 2°55.499 340.5 8.2 338 -999
2006-07-26 06:51:36 51°14.032 2°55.492 340 8.1 337 -999
2006-07-26 06:51:41 51°14.042 2°55.485 339 7.9 336 -999
2006-07-26 06:51:46 51°14.052 2°55.478 337.6 7.8 335 -999
2006-07-26 06:51:51 51°14.061 2°55.47 336.5 7.7 334 -999
2006-07-26 06:51:56 51°14.071 2°55.463 336.5 7.6 334 -999
2006-07-26 06:52:01 51°14.08 2°55.456 336.8 7.5 335 -999
2006-07-26 06:52:06 51°14.09 2°55.449 336.9 7.4 334 -999
2006-07-26 06:52:11 51°14.099 2°55.442 337 7.4 334 -999
2006-07-26 06:52:16 51°14.108 2°55.434 336.8 7.4 334 -999
2006-07-26 06:52:21 51°14.117 2°55.427 336.6 7.4 334 -999
2006-07-26 06:52:26 51°14.126 2°55.42 336.4 7.4 333 -999
2006-07-26 06:52:31 51°14.136 2°55.412 336.3 7.5 333 -999
2006-07-26 06:52:36 51°14.145 2°55.405 335.6 7.4 333 -999
2006-07-26 06:52:41 51°14.154 2°55.397 334.4 7.4 332 -999
2006-07-26 06:52:46 51°14.163 2°55.388 333.1 7.5 330 -999
2006-07-26 06:52:51 51°14.171 2°55.38 332.7 7.5 330 -999
2006-07-26 06:52:56 51°14.18 2°55.372 332.5 7.5 329 -999
2006-07-26 06:53:01 51°14.189 2°55.363 331.6 7.5 329 -999
2006-07-26 06:53:06 51°14.198 2°55.354 330.1 7.5 327 -999
2006-07-26 06:53:11 51°14.206 2°55.345 328.3 7.5 326 -999
2006-07-26 06:53:16 51°14.215 2°55.335 327 7.5 324 -999
2006-07-26 06:53:21 51°14.223 2°55.325 325.9 7.5 323 -999
2006-07-26 06:53:26 51°14.231 2°55.314 324.9 7.5 322 -999
2006-07-26 06:53:31 51°14.239 2°55.304 323.9 7.5 321 -999
2006-07-26 06:53:36 51°14.247 2°55.293 322.8 7.5 320 -999
2006-07-26 06:53:41 51°14.255 2°55.282 321 7.5 318 -999
2006-07-26 06:53:46 51°14.262 2°55.27 319.2 7.5 317 -999
2006-07-26 06:53:51 51°14.269 2°55.259 318.1 7.5 316 -999
2006-07-26 06:53:56 51°14.277 2°55.247 317.2 7.5 315 -999
2006-07-26 06:54:01 51°14.284 2°55.235 316.2 7.5 313 -999
2006-07-26 06:54:06 51°14.291 2°55.223 315 7.5 312 -999
2006-07-26 06:54:11 51°14.298 2°55.21 314 7.5 311 -999
2006-07-26 06:54:16 51°14.305 2°55.198 313.7 7.6 311 -999
2006-07-26 06:54:21 51°14.312 2°55.185 314 7.6 311 -999
2006-07-26 06:54:26 51°14.319 2°55.173 313.8 7.6 311 -999
2006-07-26 06:54:31 51°14.325 2°55.16 312.9 7.6 310 -999
2006-07-26 06:54:36 51°14.332 2°55.147 312 7.6 310 -999
2006-07-26 06:54:41 51°14.339 2°55.134 311.9 7.6 309 -999
2006-07-26 06:54:46 51°14.345 2°55.121 312.3 7.7 310 -999
2006-07-26 06:54:51 51°14.352 2°55.108 312.9 7.7 310 -999
2006-07-26 06:54:56 51°14.359 2°55.095 313.8 7.7 311 -999
2006-07-26 06:55:01 51°14.366 2°55.082 314.5 7.8 311 -999
2006-07-26 06:55:06 51°14.373 2°55.069 314.7 7.9 312 -999
2006-07-26 06:55:11 51°14.381 2°55.055 314.3 8.3 311 -999
2006-07-26 06:55:16 51°14.389 2°55.04 314.1 8.8 311 -999
2006-07-26 06:55:21 51°14.398 2°55.024 315.1 9.4 312 -999
2006-07-26 06:55:26 51°14.407 2°55.008 316.5 9.8 313 -999
2006-07-26 06:55:31 51°14.417 2°54.991 317.3 10.2 313 -999
2006-07-26 06:55:36 51°14.427 2°54.974 317.9 10.5 313 -999
2006-07-26 06:55:41 51°14.437 2°54.956 318.9 10.8 313 -999
2006-07-26 06:55:46 51°14.448 2°54.938 319.6 11.1 313 -999
2006-07-26 06:55:51 51°14.459 2°54.92 320.8 11.4 313 -999
2006-07-26 06:55:56 51°14.469 2°54.9 321.6 11.6 313 -999
2006-07-26 06:56:01 51°14.481 2°54.881 322.9 11.9 313 -999
2006-07-26 06:56:06 51°14.493 2°54.863 325.4 11.9 316 -999
2006-07-26 06:56:11 51°14.505 2°54.846 327.6 12 318 -999
2006-07-26 06:56:16 51°14.518 2°54.829 329.9 12 320 -999
2006-07-26 06:56:21 51°14.531 2°54.813 332.3 12 323 -999
2006-07-26 06:56:26 51°14.545 2°54.797 334 12.1 324 -999
2006-07-26 06:56:31 51°14.559 2°54.782 335.2 12.1 325 -999
2006-07-26 06:56:36 51°14.573 2°54.767 336.2 12.1 326 -999
2006-07-26 06:56:41 51°14.588 2°54.753 337.6 12.1 328 -999
2006-07-26 06:56:46 51°14.602 2°54.739 337.7 12.1 328 -999
2006-07-26 06:56:51 51°14.616 2°54.724 337.3 12.1 327 -999
2006-07-26 06:56:56 51°14.63 2°54.709 336.4 12.2 326 -999
2006-07-26 06:57:01 51°14.644 2°54.694 336.1 12.2 326 -999
2006-07-26 06:57:06 51°14.658 2°54.678 335.6 12.3 325 -999
2006-07-26 06:57:11 51°14.672 2°54.663 335.4 12.3 325 -999
2006-07-26 06:57:16 51°14.686 2°54.647 335.5 12.3 325 -999
2006-07-26 06:57:21 51°14.7 2°54.632 336 12.3 325 -999
2006-07-26 06:57:26 51°14.714 2°54.617 336.7 12.3 326 -999
2006-07-26 06:57:31 51°14.728 2°54.602 337.3 12.3 327 -999
2006-07-26 06:57:36 51°14.743 2°54.588 338.1 12.2 328 -999
2006-07-26 06:57:41 51°14.757 2°54.573 338.2 12.2 328 -999
2006-07-26 06:57:46 51°14.771 2°54.559 337.8 12.2 328 -999
2006-07-26 06:57:51 51°14.785 2°54.544 336.9 12.2 327 -999
2006-07-26 06:57:56 51°14.8 2°54.529 336.5 12.2 327 -999
2006-07-26 06:58:01 51°14.814 2°54.514 336 12.2 326 -999
2006-07-26 06:58:06 51°14.828 2°54.499 336 12.2 326 -999
2006-07-26 06:58:11 51°14.842 2°54.484 335.9 12.2 326 -999
2006-07-26 06:58:16 51°14.856 2°54.469 335.6 12.2 326 -999
2006-07-26 06:58:21 51°14.87 2°54.454 335.6 12.2 326 -999
2006-07-26 06:58:26 51°14.884 2°54.439 335.5 12.2 326 -999
2006-07-26 06:58:31 51°14.898 2°54.424 335.9 12.2 327 -999
2006-07-26 06:58:36 51°14.912 2°54.41 336.2 12.2 327 -999
2006-07-26 06:58:41 51°14.927 2°54.395 336.2 12.1 327 -999
2006-07-26 06:58:46 51°14.941 2°54.38 336.2 12.1 327 -999
2006-07-26 06:58:51 51°14.955 2°54.366 335.8 12.1 327 -999
2006-07-26 06:58:56 51°14.968 2°54.351 335.6 12.1 326 -999
2006-07-26 06:59:01 51°14.982 2°54.336 335.3 12.1 326 -999
2006-07-26 06:59:06 51°14.996 2°54.32 334.7 12 325 -999
2006-07-26 06:59:11 51°15.009 2°54.305 334.3 12.1 325 -999
2006-07-26 06:59:16 51°15.023 2°54.289 334.1 12 325 -999
2006-07-26 06:59:21 51°15.037 2°54.274 334 12.1 324 -999
2006-07-26 06:59:26 51°15.05 2°54.258 333.8 12.1 324 -999
2006-07-26 06:59:31 51°15.064 2°54.242 333.4 12.1 324 -999
2006-07-26 06:59:36 51°15.077 2°54.226 333.1 12.2 323 -999
2006-07-26 06:59:41 51°15.091 2°54.21 333 12.2 323 -999
2006-07-26 06:59:46 51°15.105 2°54.194 333 12.2 323 -999
2006-07-26 06:59:51 51°15.118 2°54.178 333.8 12.2 325 -999
2006-07-26 06:59:56 51°15.132 2°54.163 334.9 12.2 325 -999
2006-07-26 07:00:01 51°15.146 2°54.147 335.3 12.3 326 -999
2006-07-26 07:00:06 51°15.16 2°54.132 335.5 12.3 326 -999
2006-07-26 07:00:11 51°15.174 2°54.116 335.5 12.3 325 -999
2006-07-26 07:00:16 51°15.188 2°54.101 335.2 12.3 325 -999
2006-07-26 07:00:21 51°15.202 2°54.085 334.6 12.3 324 -999
2006-07-26 07:00:26 51°15.216 2°54.069 334.3 12.4 324 -999
2006-07-26 07:00:31 51°15.23 2°54.052 333.7 12.4 323 -999
2006-07-26 07:00:36 51°15.244 2°54.036 333.6 12.4 323 -999
2006-07-26 07:00:41 51°15.257 2°54.019 333.6 12.4 323 -999
2006-07-26 07:00:46 51°15.271 2°54.003 333.6 12.4 323 -999
2006-07-26 07:00:51 51°15.285 2°53.987 333.8 12.4 324 -999
2006-07-26 07:00:56 51°15.299 2°53.971 334.1 12.4 324 -999
2006-07-26 07:01:01 51°15.314 2°53.955 335.2 12.4 326 -999
2006-07-26 07:01:06 51°15.328 2°53.94 336.5 12.4 327 -999
2006-07-26 07:01:11 51°15.343 2°53.927 339.6 12.3 330 -999
2006-07-26 07:01:16 51°15.358 2°53.914 341.8 12.3 332 -999
2006-07-26 07:01:21 51°15.373 2°53.902 343.3 12.2 334 -999
2006-07-26 07:01:26 51°15.388 2°53.891 345 12.2 335 -999
2006-07-26 07:01:31 51°15.403 2°53.88 345.9 12.1 336 -999
2006-07-26 07:01:36 51°15.419 2°53.869 346.2 12.1 336 -999
2006-07-26 07:01:41 51°15.434 2°53.859 346.5 12.1 336 -999
2006-07-26 07:01:46 51°15.45 2°53.848 346.5 12.1 336 -999
2006-07-26 07:01:51 51°15.465 2°53.837 346.2 12.1 336 -999
2006-07-26 07:01:56 51°15.48 2°53.825 346.1 12.1 335 -999
2006-07-26 07:02:01 51°15.495 2°53.814 345.8 12.1 335 -999
2006-07-26 07:02:06 51°15.51 2°53.802 345.5 12.2 335 -999
2006-07-26 07:02:11 51°15.525 2°53.79 345.2 12.2 334 -999
2006-07-26 07:02:16 51°15.541 2°53.778 344.7 12.2 334 -999
2006-07-26 07:02:21 51°15.556 2°53.767 344.6 12.2 334 -999
2006-07-26 07:02:26 51°15.571 2°53.755 344.9 12.2 334 -999
2006-07-26 07:02:31 51°15.586 2°53.744 345.4 12.2 335 -999
2006-07-26 07:02:36 51°15.602 2°53.733 346 12.1 335 -999
2006-07-26 07:02:41 51°15.617 2°53.721 346.4 12.1 336 -999
2006-07-26 07:02:46 51°15.632 2°53.71 346.6 12.1 336 -999
2006-07-26 07:02:51 51°15.648 2°53.699 346.5 12.1 335 -999
2006-07-26 07:02:56 51°15.663 2°53.688 346.1 12.1 335 -999
2006-07-26 07:03:01 51°15.678 2°53.676 345.5 12.2 334 -999
2006-07-26 07:03:06 51°15.693 2°53.665 345.3 12.2 334 -999
2006-07-26 07:03:11 51°15.708 2°53.653 344.6 12.2 334 -999
2006-07-26 07:03:16 51°15.723 2°53.64 344.3 12.2 333 -999
2006-07-26 07:03:21 51°15.738 2°53.628 344.3 12.2 333 -999
2006-07-26 07:03:26 51°15.753 2°53.616 344.2 12.2 333 -999
2006-07-26 07:03:31 51°15.769 2°53.604 344.2 12.2 334 -999
2006-07-26 07:03:36 51°15.784 2°53.593 344.6 12.2 334 -999
2006-07-26 07:03:41 51°15.799 2°53.581 345.1 12.1 335 -999
2006-07-26 07:03:46 51°15.815 2°53.57 345.8 12.1 336 -999
2006-07-26 07:03:51 51°15.83 2°53.56 347.4 12.1 337 -999
2006-07-26 07:03:56 51°15.845 2°53.55 348.2 12.1 338 -999
2006-07-26 07:04:01 51°15.861 2°53.541 349.2 12 339 -999
2006-07-26 07:04:06 51°15.876 2°53.532 349.8 12 340 -999
2006-07-26 07:04:11 51°15.892 2°53.523 350.5 12 341 -999
2006-07-26 07:04:16 51°15.908 2°53.514 350.5 12 341 -999
2006-07-26 07:04:21 51°15.924 2°53.505 350.5 12 341 -999
2006-07-26 07:04:26 51°15.939 2°53.496 350.5 12 341 -999
2006-07-26 07:04:31 51°15.955 2°53.487 350.1 12.1 340 -999
2006-07-26 07:04:36 51°15.971 2°53.477 349.6 12.1 340 -999
2006-07-26 07:04:41 51°15.986 2°53.468 349.4 12.1 340 -999
2006-07-26 07:04:46 51°16.002 2°53.458 349 12.1 339 -999
2006-07-26 07:04:51 51°16.018 2°53.449 348.7 12.1 339 -999
2006-07-26 07:04:56 51°16.033 2°53.439 348.7 12.1 339 -999
2006-07-26 07:05:01 51°16.049 2°53.43 348.8 12.1 339 -999
2006-07-26 07:05:06 51°16.065 2°53.42 349.1 12.1 339 -999
2006-07-26 07:05:11 51°16.08 2°53.411 349.2 12.1 339 -999
2006-07-26 07:05:16 51°16.096 2°53.402 349.5 12.1 340 -999
2006-07-26 07:05:21 51°16.112 2°53.392 349.8 12.1 340 -999
2006-07-26 07:05:26 51°16.127 2°53.383 349.8 12.1 340 -999
2006-07-26 07:05:31 51°16.143 2°53.373 349.8 12.1 339 -999
2006-07-26 07:05:36 51°16.159 2°53.364 349.5 12.1 339 -999
2006-07-26 07:05:41 51°16.174 2°53.354 349.1 12.1 339 -999
2006-07-26 07:05:46 51°16.19 2°53.344 348.3 12.1 338 -999
2006-07-26 07:05:51 51°16.205 2°53.334 348.1 12.1 338 -999
2006-07-26 07:05:56 51°16.221 2°53.324 348 12.1 338 -999
2006-07-26 07:06:01 51°16.236 2°53.314 348.1 12.1 338 -999
2006-07-26 07:06:06 51°16.252 2°53.304 348.5 12.1 338 -999
2006-07-26 07:06:11 51°16.268 2°53.294 348.9 12.1 339 -999
2006-07-26 07:06:16 51°16.283 2°53.285 349.1 12.1 339 -999
2006-07-26 07:06:21 51°16.299 2°53.275 349.3 12.1 339 -999
2006-07-26 07:06:26 51°16.315 2°53.266 349.3 12.1 339 -999
2006-07-26 07:06:31 51°16.33 2°53.256 349.1 12.1 339 -999
2006-07-26 07:06:36 51°16.346 2°53.247 348.8 12.1 339 -999
2006-07-26 07:06:41 51°16.361 2°53.237 348.6 12.1 339 -999
2006-07-26 07:06:46 51°16.377 2°53.227 348.9 12.1 339 -999
2006-07-26 07:06:51 51°16.393 2°53.218 349.1 12.1 339 -999
2006-07-26 07:06:56 51°16.408 2°53.209 349.5 12.1 340 -999
2006-07-26 07:07:01 51°16.424 2°53.199 349.8 12.1 340 -999
2006-07-26 07:07:06 51°16.44 2°53.19 349.8 12.1 340 -999
2006-07-26 07:07:11 51°16.455 2°53.181 349.8 12.1 339 -999
2006-07-26 07:07:16 51°16.471 2°53.171 349.1 12.1 339 -999
2006-07-26 07:07:21 51°16.486 2°53.161 348.5 12.1 338 -999
2006-07-26 07:07:26 51°16.502 2°53.15 348.1 12.1 338 -999
2006-07-26 07:07:31 51°16.517 2°53.14 348 12.1 338 -999
2006-07-26 07:07:36 51°16.533 2°53.13 348.3 12.1 338 -999
2006-07-26 07:07:41 51°16.548 2°53.12 348.4 12.1 337 -999
2006-07-26 07:07:46 51°16.564 2°53.109 347.6 12 337 -999
2006-07-26 07:07:51 51°16.578 2°53.097 343.9 12.1 332 -999
2006-07-26 07:07:56 51°16.593 2°53.082 339.6 12.1 328 -999
2006-07-26 07:08:01 51°16.606 2°53.066 334.7 12.2 324 -999
2006-07-26 07:08:06 51°16.619 2°53.048 330.4 12.3 319 -999
2006-07-26 07:08:11 51°16.631 2°53.029 327.3 12.3 317 -999
2006-07-26 07:08:16 51°16.643 2°53.01 325.5 12.3 315 10
2006-07-26 07:08:19 51°16.65 2°52.998 323.6 12.3 313 10
2006-07-26 07:08:23 51°16.658 2°52.98 320.8 12.4 310 10
2006-07-26 07:08:26 51°16.664 2°52.967 316.9 12.4 306 10
2006-07-26 07:08:32 51°16.676 2°52.939 312.7 12.4 303 9.9
2006-07-26 07:08:37 51°16.684 2°52.915 309.3 12.5 300 9.8
2006-07-26 07:08:42 51°16.692 2°52.891 307 12.5 299 9.9
2006-07-26 07:08:48 51°16.7 2°52.86 303.6 12.6 293 9.7
2006-07-26 07:08:52 51°16.705 2°52.839 299.9 12.6 292 9.6
2006-07-26 07:08:57 51°16.711 2°52.812 297 12.6 289 9.6
2006-07-26 07:09:02 51°16.715 2°52.785 294.2 12.7 286 9.4
2006-07-26 07:09:07 51°16.719 2°52.758 291.7 12.7 284 9.3
2006-07-26 07:09:12 51°16.723 2°52.731 289.5 12.7 282 9.2
2006-07-26 07:09:16 51°16.725 2°52.709 288 12.5 281 9
2006-07-26 07:09:22 51°16.728 2°52.679 286.6 11.7 279 8.9
2006-07-26 07:09:27 51°16.73 2°52.655 285.2 10.9 278 8.8
2006-07-26 07:09:32 51°16.731 2°52.634 282.7 9.9 274 8.8
2006-07-26 07:09:37 51°16.731 2°52.613 279 9.4 271 8.9
2006-07-26 07:09:42 51°16.73 2°52.595 275.8 8.6 266 9
2006-07-26 07:09:47 51°16.728 2°52.577 271.5 8 262 8.8
2006-07-26 07:09:52 51°16.726 2°52.561 267.3 7.4 259 8.9
2006-07-26 07:09:57 51°16.724 2°52.547 263.5 6.9 256 9
2006-07-26 07:10:02 51°16.721 2°52.533 261.9 6.6 255 9
2006-07-26 07:10:07 51°16.719 2°52.52 261.5 6.1 255 8.9
2006-07-26 07:10:12 51°16.717 2°52.508 262 5.8 255 8.9
2006-07-26 07:10:17 51°16.715 2°52.496 263.1 5.6 255 9
2006-07-26 07:10:22 51°16.713 2°52.485 264.4 5.2 256 8.7
2006-07-26 07:10:27 51°16.712 2°52.474 266.3 4.8 256 8.6
2006-07-26 07:10:32 51°16.711 2°52.464 269.1 4.5 260 8.7
2006-07-26 07:10:37 51°16.71 2°52.455 273 4.4 261 8.7
2006-07-26 07:10:42 51°16.709 2°52.446 276.5 4.2 263 8.7
2006-07-26 07:10:47 51°16.708 2°52.437 278.9 4 264 8.7
2006-07-26 07:10:52 51°16.708 2°52.428 280.9 3.9 265 8.8
2006-07-26 07:10:57 51°16.707 2°52.42 282.6 3.8 265 8.8
2006-07-26 07:11:02 51°16.707 2°52.412 283.7 3.7 266 8.7
2006-07-26 07:11:07 51°16.707 2°52.404 285.4 3.5 267 8.7
2006-07-26 07:11:12 51°16.707 2°52.396 286.4 3.4 268 8.7
2006-07-26 07:11:17 51°16.707 2°52.389 287.6 3.4 267 8.7
2006-07-26 07:11:22 51°16.706 2°52.382 288.8 3.3 268 8.8
2006-07-26 07:11:27 51°16.706 2°52.375 289.7 3.2 268 8.8
2006-07-26 07:11:32 51°16.706 2°52.368 290.7 3.1 269 8.8
2006-07-26 07:11:36 51°16.706 2°52.362 291.7 3 269 8.9
2006-07-26 07:11:42 51°16.706 2°52.354 292.8 2.9 271 8.9
2006-07-26 07:11:47 51°16.706 2°52.348 293.6 2.9 270 8.9
2006-07-26 07:11:52 51°16.706 2°52.342 295.1 2.8 271 9
2006-07-26 07:11:58 51°16.706 2°52.335 295.7 2.8 270 9
2006-07-26 07:12:02 51°16.707 2°52.33 296.8 2.8 271 9.1
2006-07-26 07:12:07 51°16.707 2°52.324 297.8 2.7 272 9.1
2006-07-26 07:12:12 51°16.707 2°52.318 298.9 2.6 273 9.1
2006-07-26 07:12:16 51°16.707 2°52.314 300 2.6 274 9.1
2006-07-26 07:12:22 51°16.707 2°52.307 301.2 2.7 275 9.1
2006-07-26 07:12:26 51°16.708 2°52.302 302.1 2.7 278 9
2006-07-26 07:12:32 51°16.709 2°52.295 303.4 2.8 278 9.1
2006-07-26 07:12:37 51°16.709 2°52.288 304.3 2.9 281 9.1
2006-07-26 07:12:42 51°16.71 2°52.282 305.4 3 283 9.1
2006-07-26 07:12:47 51°16.711 2°52.275 306.5 3.1 284 9.1
2006-07-26 07:12:52 51°16.712 2°52.268 307.3 3.2 285 9.1
2006-07-26 07:12:57 51°16.714 2°52.261 308.2 3.2 287 9.2
2006-07-26 07:13:02 51°16.715 2°52.254 309.1 3.3 287 9.2
2006-07-26 07:13:07 51°16.716 2°52.247 310 3.4 289 9.1
2006-07-26 07:13:12 51°16.718 2°52.24 310.9 3.4 289 9.1
2006-07-26 07:13:17 51°16.72 2°52.233 311.5 3.4 291 9.2
2006-07-26 07:13:22 51°16.721 2°52.226 312 3.4 291 9.2
2006-07-26 07:13:27 51°16.723 2°52.218 312.8 3.5 292 9.1
2006-07-26 07:13:32 51°16.725 2°52.211 313.3 3.5 292 9
2006-07-26 07:13:37 51°16.727 2°52.204 313.6 3.5 293 9
2006-07-26 07:13:42 51°16.729 2°52.197 314.3 3.6 294 9.1
2006-07-26 07:13:47 51°16.731 2°52.19 315.5 3.5 295 9
2006-07-26 07:13:52 51°16.733 2°52.183 316.7 3.4 294 9
2006-07-26 07:13:57 51°16.735 2°52.177 318.3 3.3 297 8.9
2006-07-26 07:14:01 51°16.737 2°52.172 320.3 3.3 298 9
2006-07-26 07:14:07 51°16.739 2°52.164 322.1 3.2 300 9
2006-07-26 07:14:12 51°16.741 2°52.158 323.3 3.2 301 9
2006-07-26 07:14:17 51°16.743 2°52.152 325.1 3.1 302 9
2006-07-26 07:14:22 51°16.746 2°52.147 327.5 3 304 9
2006-07-26 07:14:27 51°16.748 2°52.142 329.2 2.9 305 9
2006-07-26 07:14:32 51°16.751 2°52.137 331.2 2.9 306 9
2006-07-26 07:14:37 51°16.753 2°52.132 332.8 2.8 308 9
2006-07-26 07:14:42 51°16.755 2°52.127 334.3 2.8 309 8.9
2006-07-26 07:14:47 51°16.758 2°52.122 335.4 2.7 310 9
2006-07-26 07:14:52 51°16.76 2°52.118 337 2.6 311 9
2006-07-26 07:14:57 51°16.763 2°52.114 338.6 2.6 313 9.1
2006-07-26 07:15:02 51°16.765 2°52.11 340.9 2.6 315 9.1
2006-07-26 07:15:07 51°16.768 2°52.106 343 2.5 317 9.1
2006-07-26 07:15:12 51°16.77 2°52.103 344.8 2.4 319 9.1
2006-07-26 07:15:17 51°16.773 2°52.1 347.1 2.4 322 9.1
2006-07-26 07:15:22 51°16.775 2°52.096 349.7 2.3 323 9
2006-07-26 07:15:25 51°16.777 2°52.095 352.8 2.2 326 9
2006-07-26 07:15:32 51°16.78 2°52.091 355.6 2.2 329 9
2006-07-26 07:15:37 51°16.783 2°52.089 357.8 2.1 333 9
2006-07-26 07:15:42 51°16.785 2°52.087 0.7 2 336 8.9
2006-07-26 07:15:47 51°16.788 2°52.085 4.1 2 339 9
2006-07-26 07:15:52 51°16.791 2°52.084 6.3 1.9 343 8.9
2006-07-26 07:15:57 51°16.793 2°52.083 9.1 1.9 346 9
2006-07-26 07:16:02 51°16.796 2°52.083 11.8 1.9 350 8.9
2006-07-26 07:16:07 51°16.798 2°52.082 14.7 1.9 354 9
2006-07-26 07:16:12 51°16.801 2°52.082 17.8 1.9 358 9.1
2006-07-26 07:16:17 51°16.803 2°52.083 20.9 1.8 4 9.1
2006-07-26 07:16:22 51°16.806 2°52.083 23.9 1.8 7 9.2
2006-07-26 07:16:26 51°16.808 2°52.084 27 1.8 13 9.2
2006-07-26 07:16:32 51°16.81 2°52.085 30.1 1.7 16 9.1
2006-07-26 07:16:37 51°16.812 2°52.086 33.2 1.7 23 9.1
2006-07-26 07:16:42 51°16.814 2°52.088 36.2 1.7 28 9
2006-07-26 07:16:47 51°16.816 2°52.091 39.3 1.7 34 8.9
2006-07-26 07:16:52 51°16.818 2°52.093 42.8 1.8 40 8.9
2006-07-26 07:16:58 51°16.82 2°52.097 46.2 1.8 46 8.9
2006-07-26 07:17:02 51°16.822 2°52.099 49.6 1.9 47 8.9
2006-07-26 07:17:07 51°16.823 2°52.103 52.5 2 56 9
2006-07-26 07:17:12 51°16.825 2°52.107 55.1 2 56 9.1
2006-07-26 07:17:17 51°16.826 2°52.111 57.6 2.1 63 9.2
2006-07-26 07:17:22 51°16.827 2°52.115 59.7 2.2 63 9.1
2006-07-26 07:17:27 51°16.828 2°52.12 61.6 2.3 69 9.1
2006-07-26 07:17:32 51°16.83 2°52.125 63.3 2.3 68 9.1
2006-07-26 07:17:37 51°16.831 2°52.13 65 2.4 71 9.1
2006-07-26 07:17:42 51°16.832 2°52.135 66.5 2.5 73 9
2006-07-26 07:17:46 51°16.832 2°52.14 67.9 2.6 74 8.9
2006-07-26 07:17:52 51°16.833 2°52.146 69.3 2.6 76 8.9
2006-07-26 07:17:57 51°16.834 2°52.152 70 2.6 77 9.1
2006-07-26 07:18:02 51°16.835 2°52.158 70.8 2.7 77 9.2
2006-07-26 07:18:07 51°16.836 2°52.164 71.8 2.7 79 9.2
2006-07-26 07:18:12 51°16.836 2°52.17 72.6 2.8 81 9.1
2006-07-26 07:18:17 51°16.837 2°52.176 73.2 2.8 81 9.1
2006-07-26 07:18:22 51°16.837 2°52.182 73.6 2.8 82 9.1
2006-07-26 07:18:27 51°16.838 2°52.188 74.1 2.8 82 9
2006-07-26 07:18:32 51°16.838 2°52.194 74.7 2.8 83 9
2006-07-26 07:18:37 51°16.839 2°52.2 75.1 2.8 85 8.9
2006-07-26 07:18:42 51°16.839 2°52.207 75.4 2.8 85 8.9
2006-07-26 07:18:46 51°16.839 2°52.212 76.2 2.8 86 8.9
2006-07-26 07:18:52 51°16.839 2°52.219 76.9 2.8 86 9
2006-07-26 07:18:57 51°16.839 2°52.225 77.6 2.8 88 9
2006-07-26 07:19:02 51°16.839 2°52.231 78.3 2.7 88 9
2006-07-26 07:19:07 51°16.839 2°52.237 79.2 2.8 90 9
2006-07-26 07:19:12 51°16.839 2°52.243 79.8 2.7 90 9
2006-07-26 07:19:17 51°16.839 2°52.25 80.4 2.7 92 9
2006-07-26 07:19:22 51°16.839 2°52.256 80.8 2.7 92 8.9
2006-07-26 07:19:27 51°16.839 2°52.262 81.2 2.7 93 8.9
2006-07-26 07:19:32 51°16.838 2°52.268 81.6 2.7 93 8.9
2006-07-26 07:19:37 51°16.838 2°52.274 82 2.7 94 8.9
2006-07-26 07:19:42 51°16.838 2°52.28 82.3 2.7 95 8.9
2006-07-26 07:19:47 51°16.837 2°52.286 82.8 2.7 95 8.9
2006-07-26 07:19:52 51°16.837 2°52.292 83.2 2.7 95 8.9
2006-07-26 07:19:57 51°16.837 2°52.297 83.4 2.7 96 8.9
2006-07-26 07:20:02 51°16.836 2°52.303 83.8 2.7 96 8.9
2006-07-26 07:20:07 51°16.836 2°52.309 84.2 2.8 98 8.9
2006-07-26 07:20:12 51°16.835 2°52.315 84.9 2.8 98 8.8
2006-07-26 07:20:17 51°16.834 2°52.321 85.6 2.8 98 8.9
2006-07-26 07:20:22 51°16.834 2°52.328 86.2 2.8 99 8.8
2006-07-26 07:20:27 51°16.833 2°52.334 86.8 2.8 100 8.8
2006-07-26 07:20:32 51°16.833 2°52.339 87.3 2.7 100 8.8
2006-07-26 07:20:37 51°16.832 2°52.345 88 2.7 102 8.8
2006-07-26 07:20:42 51°16.831 2°52.351 88.5 2.7 104 8.9
2006-07-26 07:20:47 51°16.83 2°52.357 88.9 2.7 103 8.8
2006-07-26 07:20:52 51°16.829 2°52.363 89.4 2.8 106 8.9
2006-07-26 07:20:57 51°16.828 2°52.368 90 2.8 106 8.9
2006-07-26 07:21:02 51°16.827 2°52.374 91.2 2.8 107 8.9
2006-07-26 07:21:07 51°16.825 2°52.38 92.9 2.8 109 9
2006-07-26 07:21:12 51°16.824 2°52.386 94.7 2.8 111 9
2006-07-26 07:21:18 51°16.822 2°52.393 97.2 2.9 115 9
2006-07-26 07:21:22 51°16.82 2°52.397 99.6 2.9 116 9
2006-07-26 07:21:27 51°16.818 2°52.403 102.3 3 121 9.1
2006-07-26 07:21:32 51°16.817 2°52.409 104.8 3 122 9.1
2006-07-26 07:21:37 51°16.814 2°52.414 107.6 3 125 9.1
2006-07-26 07:21:42 51°16.812 2°52.419 110.4 3.1 128 9.1
2006-07-26 07:21:46 51°16.81 2°52.423 113 3.1 131 9.1
2006-07-26 07:21:52 51°16.806 2°52.429 115.6 3.1 132 9.1
2006-07-26 07:21:57 51°16.803 2°52.434 118.3 3.1 135 9.1
2006-07-26 07:22:02 51°16.8 2°52.439 121 3.2 139 9.1
2006-07-26 07:22:07 51°16.796 2°52.443 123.6 3.2 141 9.1
2006-07-26 07:22:12 51°16.792 2°52.448 126.2 3.2 143 9.1
2006-07-26 07:22:17 51°16.788 2°52.452 128.7 3.3 146 9.1
2006-07-26 07:22:22 51°16.784 2°52.455 131.3 3.4 147 9
2006-07-26 07:22:27 51°16.78 2°52.459 133.8 3.5 150 9.1
2006-07-26 07:22:32 51°16.775 2°52.463 136.3 3.5 152 9.1
2006-07-26 07:22:37 51°16.771 2°52.466 138.7 3.5 154 9.1
2006-07-26 07:22:42 51°16.766 2°52.469 141.2 3.6 156 9.1
2006-07-26 07:22:47 51°16.761 2°52.472 143.7 3.6 159 9
2006-07-26 07:22:52 51°16.756 2°52.475 146.1 3.7 161 9
2006-07-26 07:22:56 51°16.752 2°52.476 148.7 3.7 164 9
2006-07-26 07:23:02 51°16.746 2°52.479 151.3 3.8 165 9
2006-07-26 07:23:07 51°16.741 2°52.48 154 3.8 168 8.9
2006-07-26 07:23:12 51°16.736 2°52.482 156.7 3.8 171 9
2006-07-26 07:23:17 51°16.731 2°52.483 159.3 3.9 172 9
2006-07-26 07:23:22 51°16.725 2°52.484 161.8 3.9 174 9
2006-07-26 07:23:26 51°16.721 2°52.484 164.4 3.9 176 8.9
2006-07-26 07:23:32 51°16.714 2°52.484 166.8 3.9 177 8.7
2006-07-26 07:23:37 51°16.708 2°52.484 169.5 3.9 180 8.7
2006-07-26 07:23:42 51°16.703 2°52.484 172 4 181 8.9
2006-07-26 07:23:47 51°16.697 2°52.483 174.5 4 185 9
2006-07-26 07:23:52 51°16.692 2°52.482 177 4.1 186 9.1
2006-07-26 07:23:57 51°16.686 2°52.481 179 4.1 187 9.2
2006-07-26 07:24:02 51°16.68 2°52.479 182.1 4.2 189 9.4
2006-07-26 07:24:07 51°16.674 2°52.478 184.6 4.2 191 9.5
2006-07-26 07:24:12 51°16.668 2°52.475 187.1 4.2 193 9.5
2006-07-26 07:24:17 51°16.663 2°52.473 189 4.2 195 9.6
2006-07-26 07:24:22 51°16.657 2°52.47 190.9 4.3 196 9.6
2006-07-26 07:24:27 51°16.651 2°52.467 192.9 4.3 198 9.7
2006-07-26 07:24:32 51°16.646 2°52.464 195.2 4.3 200 9.8
2006-07-26 07:24:37 51°16.64 2°52.461 197.6 4.3 201 9.7
2006-07-26 07:24:42 51°16.635 2°52.457 200.3 4.3 204 9.8
2006-07-26 07:24:47 51°16.629 2°52.452 202.7 4.3 206 9.9
2006-07-26 07:24:52 51°16.624 2°52.448 205.3 4.3 207 10
2006-07-26 07:24:57 51°16.619 2°52.443 207.8 4.3 210 10
2006-07-26 07:25:02 51°16.614 2°52.438 209.9 4.3 211 10
2006-07-26 07:25:07 51°16.609 2°52.433 213.1 4.3 214 10
2006-07-26 07:25:11 51°16.605 2°52.428 215.6 4.3 216 9.9
2006-07-26 07:25:17 51°16.599 2°52.421 218.3 4.3 218 10
2006-07-26 07:25:22 51°16.595 2°52.415 220.9 4.3 219 10
2006-07-26 07:25:27 51°16.59 2°52.409 223.7 4.3 222 10.1
2006-07-26 07:25:32 51°16.586 2°52.402 226.3 4.2 224 10.1
2006-07-26 07:25:37 51°16.582 2°52.396 228.9 4.2 226 10
2006-07-26 07:25:42 51°16.578 2°52.389 231.6 4.2 228 10.1
2006-07-26 07:25:47 51°16.574 2°52.382 233.7 4.2 230 10.1
2006-07-26 07:25:52 51°16.571 2°52.374 237.3 4.2 232 10
2006-07-26 07:25:57 51°16.567 2°52.367 240.9 4.1 235 10.1
2006-07-26 07:26:02 51°16.564 2°52.359 244.9 4.1 239 10.1
2006-07-26 07:26:07 51°16.562 2°52.351 248.1 4.1 242 10.1
2006-07-26 07:26:12 51°16.559 2°52.343 252.4 4 244 10.1
2006-07-26 07:26:17 51°16.557 2°52.335 257.5 4 247 10
2006-07-26 07:26:22 51°16.555 2°52.326 261.9 3.9 251 10.1
2006-07-26 07:26:27 51°16.554 2°52.318 266 3.9 255 10
2006-07-26 07:26:32 51°16.553 2°52.31 269.4 3.9 257 10
2006-07-26 07:26:37 51°16.552 2°52.301 273.5 3.8 261 10
2006-07-26 07:26:42 51°16.552 2°52.293 277.5 3.8 264 10
2006-07-26 07:26:48 51°16.551 2°52.283 281.5 3.7 267 10
2006-07-26 07:26:52 51°16.551 2°52.277 285.3 3.7 269 10
2006-07-26 07:26:57 51°16.551 2°52.269 290 3.6 272 9.9
2006-07-26 07:27:02 51°16.552 2°52.261 293.9 3.6 276 9.9
2006-07-26 07:27:07 51°16.553 2°52.253 298.1 3.5 279 9.9
2006-07-26 07:27:12 51°16.554 2°52.246 302.2 3.4 283 9.9
2006-07-26 07:27:17 51°16.555 2°52.239 306.2 3.3 286 9.9
2006-07-26 07:27:22 51°16.557 2°52.232 309.4 3.3 289 9.8
2006-07-26 07:27:27 51°16.558 2°52.226 313.3 3.2 291 9.8
2006-07-26 07:27:32 51°16.56 2°52.22 318.1 3.1 295 9.8
2006-07-26 07:27:37 51°16.562 2°52.214 322 3.1 297 9.8
2006-07-26 07:27:41 51°16.564 2°52.209 325.9 3 303 9.8
2006-07-26 07:27:47 51°16.567 2°52.203 329.1 2.9 306 9.8
2006-07-26 07:27:53 51°16.57 2°52.198 333.9 2.8 311 9.9
2006-07-26 07:27:57 51°16.572 2°52.194 338.1 2.7 314 9.8
2006-07-26 07:28:02 51°16.575 2°52.191 342.2 2.6 319 9.8
2006-07-26 07:28:06 51°16.577 2°52.188 346.2 2.5 323 9.8
2006-07-26 07:28:12 51°16.58 2°52.184 350.1 2.5 328 9.8
2006-07-26 07:28:17 51°16.583 2°52.182 353 2.4 331 9.7
2006-07-26 07:28:21 51°16.586 2°52.18 357 2.4 334 9.7
2006-07-26 07:28:27 51°16.589 2°52.178 0.4 2.3 339 9.7
2006-07-26 07:28:32 51°16.592 2°52.176 3.7 2.4 343 9.6
2006-07-26 07:28:37 51°16.595 2°52.175 7.2 2.3 347 9.6
2006-07-26 07:28:42 51°16.599 2°52.175 10.6 2.3 352 9.6
2006-07-26 07:28:47 51°16.602 2°52.174 12.8 2.4 355 9.5
2006-07-26 07:28:52 51°16.605 2°52.174 14.8 2.4 357 9.5
2006-07-26 07:28:57 51°16.609 2°52.174 16.4 2.4 359 9.6
2006-07-26 07:29:02 51°16.612 2°52.174 18.1 2.5 2 9.5
2006-07-26 07:29:07 51°16.616 2°52.174 19.4 2.6 3 9.5
2006-07-26 07:29:12 51°16.619 2°52.175 20.6 2.6 6 9.5
2006-07-26 07:29:18 51°16.623 2°52.176 21.6 2.6 8 9.5
2006-07-26 07:29:22 51°16.626 2°52.177 22.6 2.6 8 9.5
2006-07-26 07:29:26 51°16.629 2°52.178 24 2.7 12 9.5
2006-07-26 07:29:32 51°16.634 2°52.179 25.1 2.7 12 9.5
2006-07-26 07:29:37 51°16.637 2°52.181 25.9 2.7 15 9.4
2006-07-26 07:29:42 51°16.641 2°52.182 27 2.7 16 9.5
2006-07-26 07:29:47 51°16.644 2°52.184 28 2.8 17 9.5
2006-07-26 07:29:52 51°16.648 2°52.186 29.4 2.8 19 9.4
2006-07-26 07:29:57 51°16.652 2°52.188 30.3 2.8 21 9.4
2006-07-26 07:30:02 51°16.655 2°52.191 31.3 2.8 22 9.4
2006-07-26 07:30:07 51°16.659 2°52.193 32.3 2.8 24 9.4
2006-07-26 07:30:12 51°16.662 2°52.196 33.3 2.8 24 9.4
2006-07-26 07:30:17 51°16.666 2°52.199 34.5 2.8 26 9.4
2006-07-26 07:30:22 51°16.669 2°52.201 35.3 2.8 27 9.4
2006-07-26 07:30:27 51°16.672 2°52.204 36.4 2.7 31 9.4
2006-07-26 07:30:32 51°16.676 2°52.208 37.8 2.7 32 9.4
2006-07-26 07:30:37 51°16.678 2°52.211 39.1 2.7 35 9.2
2006-07-26 07:30:42 51°16.682 2°52.215 40.5 2.7 36 9.2
2006-07-26 07:30:47 51°16.685 2°52.218 41.9 2.7 38 9.2
2006-07-26 07:30:52 51°16.687 2°52.222 43.1 2.7 40 9.1
2006-07-26 07:30:57 51°16.69 2°52.226 44.7 2.7 41 9.1
2006-07-26 07:31:01 51°16.692 2°52.229 46.1 2.7 43 9.1
2006-07-26 07:31:07 51°16.695 2°52.234 47.2 2.7 46 9.1
2006-07-26 07:31:12 51°16.698 2°52.239 48.6 2.7 47 9.1
2006-07-26 07:31:17 51°16.7 2°52.243 50.6 2.7 51 9.1
2006-07-26 07:31:22 51°16.702 2°52.248 53.1 2.7 55 9.1
2006-07-26 07:31:28 51°16.704 2°52.254 55.7 2.6 59 9.2
2006-07-26 07:31:32 51°16.705 2°52.258 58 2.6 61 9.1
2006-07-26 07:31:37 51°16.707 2°52.264 60.9 2.7 66 9.1
2006-07-26 07:31:42 51°16.708 2°52.269 63.7 2.7 69 9.1
2006-07-26 07:31:47 51°16.709 2°52.275 66.3 2.7 73 9.2
2006-07-26 07:31:52 51°16.71 2°52.281 69.6 2.8 78 9.1
2006-07-26 07:31:57 51°16.71 2°52.287 72.3 2.8 80 9.1
2006-07-26 07:32:02 51°16.711 2°52.293 75 2.8 83 9.1
2006-07-26 07:32:07 51°16.711 2°52.299 77.3 2.7 88 9.1
2006-07-26 07:32:12 51°16.711 2°52.305 79.3 2.5 90 9.1
2006-07-26 07:32:17 51°16.71 2°52.31 81.1 2.4 93 9.1
2006-07-26 07:32:22 51°16.71 2°52.315 82.7 2.3 96 9.1
2006-07-26 07:32:27 51°16.71 2°52.32 84.3 2.2 98 9.1
2006-07-26 07:32:32 51°16.709 2°52.325 85.5 2.2 101 9
2006-07-26 07:32:37 51°16.708 2°52.329 87 2.1 104 9.1
2006-07-26 07:32:42 51°16.707 2°52.333 88.8 2 107 9
2006-07-26 07:32:46 51°16.707 2°52.337 90 2 110 9
2006-07-26 07:32:52 51°16.705 2°52.341 91.8 2 113 9
2006-07-26 07:32:57 51°16.704 2°52.345 93.4 1.9 115 9
2006-07-26 07:33:02 51°16.703 2°52.348 94.5 1.8 118 9
2006-07-26 07:33:07 51°16.701 2°52.352 96.3 1.8 122 9
2006-07-26 07:33:12 51°16.7 2°52.355 97.4 1.8 123 9
2006-07-26 07:33:17 51°16.698 2°52.358 98.9 1.8 127 9
2006-07-26 07:33:22 51°16.697 2°52.361 100.4 1.7 127 9.1
2006-07-26 07:33:27 51°16.695 2°52.364 101.6 1.7 132 9
2006-07-26 07:33:32 51°16.693 2°52.367 102.6 1.7 133 9.1
2006-07-26 07:33:36 51°16.692 2°52.368 103.7 1.6 137 9.1
2006-07-26 07:33:42 51°16.69 2°52.371 104.7 1.6 136 9.1
2006-07-26 07:33:46 51°16.688 2°52.373 105.9 1.6 139 9.2
2006-07-26 07:33:51 51°16.686 2°52.375 106.9 1.6 141 9.2
2006-07-26 07:33:57 51°16.684 2°52.378 107.8 1.6 144 9.2
2006-07-26 07:34:02 51°16.682 2°52.38 108.5 1.6 145 9.3
2006-07-26 07:34:07 51°16.681 2°52.382 109.3 1.6 147 9.3
2006-07-26 07:34:12 51°16.679 2°52.383 110.1 1.6 148 9.3
2006-07-26 07:34:17 51°16.677 2°52.385 110.8 1.6 151 9.3
2006-07-26 07:34:22 51°16.675 2°52.386 111.3 1.5 152 9.4
2006-07-26 07:34:27 51°16.674 2°52.388 111.8 1.5 152 9.3
2006-07-26 07:34:32 51°16.672 2°52.389 112.2 1.4 153 9.4
2006-07-26 07:34:38 51°16.67 2°52.391 112.5 1.5 156 9.4
2006-07-26 07:34:42 51°16.668 2°52.392 112.7 1.4 156 9.4
2006-07-26 07:34:47 51°16.666 2°52.393 112.9 1.4 157 9.5
2006-07-26 07:34:52 51°16.664 2°52.395 113 1.4 156 9.5
2006-07-26 07:34:57 51°16.662 2°52.395 113 1.4 160 9.5
2006-07-26 07:35:02 51°16.661 2°52.397 113 1.4 160 9.5
2006-07-26 07:35:07 51°16.659 2°52.398 112.9 1.3 162 9.5
2006-07-26 07:35:12 51°16.657 2°52.398 112.8 1.4 161 9.5
2006-07-26 07:35:17 51°16.655 2°52.4 112.6 1.4 160 9.6
2006-07-26 07:35:22 51°16.653 2°52.401 112.5 1.5 156 9.6
2006-07-26 07:35:27 51°16.651 2°52.403 112.2 1.6 153 9.5
2006-07-26 07:35:32 51°16.649 2°52.405 112.2 1.7 151 9.6
2006-07-26 07:35:37 51°16.647 2°52.407 111.9 1.7 148 9.6
2006-07-26 07:35:42 51°16.645 2°52.409 111.7 1.8 147 9.6
2006-07-26 07:35:47 51°16.643 2°52.411 111.5 1.8 143 9.7
2006-07-26 07:35:52 51°16.641 2°52.414 111.2 2 140 9.7
2006-07-26 07:35:57 51°16.638 2°52.417 110.9 2.1 139 9.8
2006-07-26 07:36:02 51°16.636 2°52.421 110.5 2.2 136 9.8
2006-07-26 07:36:07 51°16.634 2°52.424 110.3 2.3 134 9.8
2006-07-26 07:36:12 51°16.632 2°52.428 110.3 2.4 134 9.9
2006-07-26 07:36:17 51°16.629 2°52.432 110.3 2.5 133 9.9
2006-07-26 07:36:22 51°16.627 2°52.437 110.5 2.6 131 9.9
2006-07-26 07:36:27 51°16.624 2°52.441 111 2.7 131 10
2006-07-26 07:36:32 51°16.622 2°52.446 111.3 2.8 130 10
2006-07-26 07:36:37 51°16.619 2°52.451 111.7 2.9 129 10
2006-07-26 07:36:42 51°16.617 2°52.456 112 3 130 10
2006-07-26 07:36:47 51°16.614 2°52.461 112.4 3 129 10
2006-07-26 07:36:52 51°16.611 2°52.467 113.1 3.1 130 10.1
2006-07-26 07:36:57 51°16.608 2°52.472 113.6 3.2 130 10.1
2006-07-26 07:37:02 51°16.605 2°52.478 114.1 3.3 130 10.1
2006-07-26 07:37:07 51°16.602 2°52.483 114.6 3.3 130 10.1
2006-07-26 07:37:12 51°16.599 2°52.489 115.3 3.4 130 10.1
2006-07-26 07:37:17 51°16.596 2°52.495 115.9 3.5 131 10.1
2006-07-26 07:37:22 51°16.593 2°52.501 116.5 3.5 131 10.1
2006-07-26 07:37:27 51°16.59 2°52.506 117.2 3.5 131 10.2
2006-07-26 07:37:32 51°16.586 2°52.511 117.8 3.4 133 10.2
2006-07-26 07:37:37 51°16.582 2°52.516 118.5 3.3 134 10.2
2006-07-26 07:37:42 51°16.579 2°52.521 119 3.2 136 10.2
2006-07-26 07:37:47 51°16.576 2°52.526 119.6 3.1 136 10.2
2006-07-26 07:37:51 51°16.573 2°52.529 120.2 3 138 10.2
2006-07-26 07:37:56 51°16.571 2°52.534 120.7 2.9 138 10.2
2006-07-26 07:38:02 51°16.567 2°52.539 121.2 2.9 140 10.2
2006-07-26 07:38:07 51°16.564 2°52.542 121.6 2.8 141 10.3
2006-07-26 07:38:11 51°16.562 2°52.545 122 2.7 142 10.3
2006-07-26 07:38:17 51°16.559 2°52.549 122.5 2.6 143 10.3
2006-07-26 07:38:22 51°16.556 2°52.553 123 2.6 145 10.3
2006-07-26 07:38:27 51°16.553 2°52.556 123.4 2.5 145 10.4
2006-07-26 07:38:32 51°16.55 2°52.559 123.8 2.5 147 10.4
2006-07-26 07:38:37 51°16.547 2°52.562 124.2 2.4 147 10.4
2006-07-26 07:38:42 51°16.544 2°52.564 124.6 2.3 149 10.5
2006-07-26 07:38:47 51°16.541 2°52.566 124.9 2.3 149 10.5
2006-07-26 07:38:52 51°16.538 2°52.569 125.2 2.3 150 10.4
2006-07-26 07:38:57 51°16.535 2°52.571 125.5 2.1 152 10.5
2006-07-26 07:39:02 51°16.533 2°52.573 125.7 2.1 152 10.5
2006-07-26 07:39:07 51°16.53 2°52.575 126 2.1 153 10.5
2006-07-26 07:39:12 51°16.527 2°52.577 126.1 2.1 155 10.6
2006-07-26 07:39:16 51°16.525 2°52.579 126.2 2.1 156 10.6
2006-07-26 07:39:22 51°16.522 2°52.581 126.3 2 156 10.6
2006-07-26 07:39:27 51°16.519 2°52.583 126.4 2 157 10.6
2006-07-26 07:39:32 51°16.517 2°52.584 126.4 2 157 10.6
2006-07-26 07:39:37 51°16.515 2°52.586 126.4 1.9 158 10.6
2006-07-26 07:39:42 51°16.512 2°52.587 126.4 1.9 159 10.6
2006-07-26 07:39:47 51°16.51 2°52.589 126.3 1.9 160 10.6
2006-07-26 07:39:52 51°16.507 2°52.59 126.2 1.8 160 10.7
2006-07-26 07:39:57 51°16.505 2°52.591 126.1 1.8 162 10.7
2006-07-26 07:40:02 51°16.502 2°52.592 125.9 1.7 161 10.7
2006-07-26 07:40:07 51°16.5 2°52.593 125.7 1.7 163 10.7
2006-07-26 07:40:12 51°16.498 2°52.595 125.4 1.7 163 10.7
2006-07-26 07:40:17 51°16.496 2°52.596 124.9 1.7 163 10.7
2006-07-26 07:40:22 51°16.494 2°52.597 124.8 1.8 160 10.8
2006-07-26 07:40:27 51°16.491 2°52.599 124.8 2 159 10.8
2006-07-26 07:40:32 51°16.488 2°52.601 125.2 2.3 154 10.9
2006-07-26 07:40:37 51°16.485 2°52.604 126.4 2.5 151 10.8
2006-07-26 07:40:42 51°16.481 2°52.608 128.5 3 149 10.8
2006-07-26 07:40:47 51°16.477 2°52.611 131.3 3.4 151 10.9
2006-07-26 07:40:52 51°16.473 2°52.615 134.2 3.7 152 10.8
2006-07-26 07:40:57 51°16.469 2°52.619 137.8 3.9 154 10.8
2006-07-26 07:41:02 51°16.464 2°52.623 141.4 4.1 156 10.8
2006-07-26 07:41:07 51°16.458 2°52.627 145.2 4.4 159 10.8
2006-07-26 07:41:12 51°16.452 2°52.63 149.1 4.7 163 10.8
2006-07-26 07:41:17 51°16.445 2°52.632 153.1 4.8 165 10.8
2006-07-26 07:41:22 51°16.438 2°52.634 157.2 5 169 10.9
2006-07-26 07:41:27 51°16.431 2°52.636 161.6 5.1 173 10.9
2006-07-26 07:41:32 51°16.424 2°52.636 166.6 5.2 177 10.9
2006-07-26 07:41:38 51°16.415 2°52.636 171.4 5.3 180 10.9
2006-07-26 07:41:42 51°16.409 2°52.635 175.4 5.4 185 10.9
2006-07-26 07:41:47 51°16.402 2°52.633 178.8 5.3 187 10.9
2006-07-26 07:41:52 51°16.395 2°52.631 182.1 5.3 190 11
2006-07-26 07:41:56 51°16.389 2°52.629 185 5.3 193 11
2006-07-26 07:42:02 51°16.38 2°52.626 187.9 5.3 194 11
2006-07-26 07:42:07 51°16.373 2°52.622 190.8 5.3 197 11
2006-07-26 07:42:12 51°16.367 2°52.618 193.6 5.3 200 11
2006-07-26 07:42:17 51°16.36 2°52.613 196.2 5.2 202 11
2006-07-26 07:42:22 51°16.353 2°52.608 198.6 5.2 204 11.1
2006-07-26 07:42:27 51°16.347 2°52.603 200.8 5.3 206 11
2006-07-26 07:42:32 51°16.34 2°52.598 202.5 5.3 208 11
2006-07-26 07:42:37 51°16.334 2°52.592 204.5 5.3 209 11
2006-07-26 07:42:42 51°16.328 2°52.586 206.1 5.3 211 11.1
2006-07-26 07:42:47 51°16.321 2°52.579 207.8 5.3 213 11.1
2006-07-26 07:42:52 51°16.315 2°52.573 209.5 5.3 213 11.1
2006-07-26 07:42:57 51°16.309 2°52.566 210.9 5.3 215 11.1
2006-07-26 07:43:02 51°16.303 2°52.559 212.1 5.3 216 11.1
2006-07-26 07:43:08 51°16.296 2°52.55 213.6 5.4 217 11.1
2006-07-26 07:43:12 51°16.291 2°52.545 214.6 5.4 218 11.1
2006-07-26 07:43:17 51°16.286 2°52.537 215 5.4 218 11.1
2006-07-26 07:43:22 51°16.28 2°52.53 215.5 5.3 219 11.1
2006-07-26 07:43:27 51°16.275 2°52.523 215.9 5.2 220 11.2
2006-07-26 07:43:32 51°16.269 2°52.515 216.3 5.1 220 11.2
2006-07-26 07:43:36 51°16.265 2°52.509 216.7 5 221 11.2
2006-07-26 07:43:42 51°16.259 2°52.501 217.1 4.9 221 11.2
2006-07-26 07:43:47 51°16.254 2°52.493 217.4 4.9 222 11.2
2006-07-26 07:43:52 51°16.249 2°52.486 217.6 4.8 222 11.2
2006-07-26 07:43:57 51°16.244 2°52.479 217.8 4.7 222 11.2
2006-07-26 07:44:02 51°16.239 2°52.472 218.2 4.6 223 11.2
2006-07-26 07:44:07 51°16.235 2°52.465 218.4 4.6 223 11.2
2006-07-26 07:44:12 51°16.23 2°52.459 218.6 4.5 223 11.3
2006-07-26 07:44:18 51°16.225 2°52.451 218.9 4.4 224 11.2
2006-07-26 07:44:22 51°16.221 2°52.445 219 4.4 224 11.2
2006-07-26 07:44:26 51°16.218 2°52.44 219 4.3 224 11.3
2006-07-26 07:44:32 51°16.213 2°52.432 219.1 4.2 224 11.3
2006-07-26 07:44:37 51°16.209 2°52.426 219.1 4.2 224 11.3
2006-07-26 07:44:42 51°16.205 2°52.419 219.1 4.1 225 11.3
2006-07-26 07:44:47 51°16.201 2°52.413 218.9 4.1 224 11.3
2006-07-26 07:44:52 51°16.197 2°52.407 218.7 4 225 11.3
2006-07-26 07:44:57 51°16.193 2°52.401 218.4 4 224 11.3
2006-07-26 07:45:02 51°16.189 2°52.395 218.1 3.9 225 11.3
2006-07-26 07:45:06 51°16.186 2°52.39 217.7 3.9 225 11.3
2006-07-26 07:45:12 51°16.182 2°52.382 217.3 3.8 225 11.3
2006-07-26 07:45:17 51°16.178 2°52.377 217 3.8 224 11.3
2006-07-26 07:45:22 51°16.174 2°52.371 216.8 3.8 225 11.3
2006-07-26 07:45:28 51°16.17 2°52.364 216.4 3.7 225 11.3
2006-07-26 07:45:32 51°16.167 2°52.359 216 3.7 224 11.3
2006-07-26 07:45:37 51°16.163 2°52.354 215.6 3.7 224 11.3
2006-07-26 07:45:42 51°16.159 2°52.348 215.3 3.6 224 11.3
2006-07-26 07:45:47 51°16.156 2°52.343 215 3.6 224 11.4
2006-07-26 07:45:52 51°16.152 2°52.338 214.5 3.5 224 11.4
2006-07-26 07:45:56 51°16.149 2°52.333 214.1 3.5 224 11.4
2006-07-26 07:46:02 51°16.145 2°52.327 213.7 3.5 224 11.3
2006-07-26 07:46:07 51°16.141 2°52.322 213.1 3.5 224 11.3
2006-07-26 07:46:12 51°16.138 2°52.316 212.7 3.5 223 11.3
2006-07-26 07:46:17 51°16.134 2°52.311 212.2 3.4 223 11.3
2006-07-26 07:46:22 51°16.131 2°52.306 211.7 3.4 223 11.4
2006-07-26 07:46:27 51°16.127 2°52.301 211.2 3.4 223 11.4
2006-07-26 07:46:32 51°16.124 2°52.296 210.7 3.4 222 11.4
2006-07-26 07:46:37 51°16.12 2°52.291 210.4 3.3 223 11.4
2006-07-26 07:46:42 51°16.117 2°52.286 210 3.3 223 11.4
2006-07-26 07:46:47 51°16.113 2°52.281 209.6 3.3 222 11.4
2006-07-26 07:46:52 51°16.11 2°52.276 209.2 3.3 222 11.4
2006-07-26 07:46:57 51°16.107 2°52.271 208.9 3.3 221 11.4
2006-07-26 07:47:02 51°16.103 2°52.266 208.4 3.3 222 11.3
2006-07-26 07:47:08 51°16.099 2°52.261 208.2 3.3 222 11.4
2006-07-26 07:47:12 51°16.096 2°52.257 207.6 3.2 222 11.4
2006-07-26 07:47:16 51°16.094 2°52.253 207.5 3.2 222 11.4
2006-07-26 07:47:22 51°16.09 2°52.247 207.1 3.2 221 11.4
2006-07-26 07:47:28 51°16.086 2°52.242 206.8 3.2 221 11.4
2006-07-26 07:47:32 51°16.083 2°52.238 206.6 3.2 221 11.4
2006-07-26 07:47:37 51°16.08 2°52.233 206.2 3.2 221 11.4
2006-07-26 07:47:42 51°16.076 2°52.228 206.1 3.2 221 11.4
2006-07-26 07:47:47 51°16.073 2°52.224 205.9 3.2 221 11.4
2006-07-26 07:47:52 51°16.07 2°52.219 205.6 3.2 221 11.4
2006-07-26 07:47:57 51°16.066 2°52.215 205.4 3.2 221 11.4
2006-07-26 07:48:02 51°16.063 2°52.21 205.3 3.2 221 11.4
2006-07-26 07:48:07 51°16.06 2°52.205 205 3.2 220 11.4
2006-07-26 07:48:12 51°16.056 2°52.201 204.7 3.2 221 11.4
2006-07-26 07:48:18 51°16.052 2°52.195 204.6 3.2 221 11.4
2006-07-26 07:48:22 51°16.05 2°52.191 204.4 3.2 221 11.4
2006-07-26 07:48:27 51°16.046 2°52.187 204.2 3.1 221 11.4
2006-07-26 07:48:32 51°16.043 2°52.182 204 3.1 221 11.4
2006-07-26 07:48:37 51°16.039 2°52.178 203.8 3.1 220 11.4
2006-07-26 07:48:42 51°16.036 2°52.174 203.6 3.1 221 11.4
2006-07-26 07:48:47 51°16.033 2°52.169 203.4 3.1 221 11.4
2006-07-26 07:48:52 51°16.029 2°52.164 203.2 3.1 220 11.4
2006-07-26 07:48:57 51°16.026 2°52.16 203.2 3.1 220 11.4
2006-07-26 07:49:02 51°16.023 2°52.155 202.9 3.1 220 11.4
2006-07-26 07:49:07 51°16.02 2°52.151 202.7 3.1 220 11.4
2006-07-26 07:49:12 51°16.016 2°52.147 202.6 3.1 220 11.4
2006-07-26 07:49:17 51°16.013 2°52.142 202.5 3.1 220 11.4
2006-07-26 07:49:22 51°16.01 2°52.138 202.2 3.1 220 11.4
2006-07-26 07:49:28 51°16.006 2°52.133 202.2 3.1 220 11.4
2006-07-26 07:49:32 51°16.003 2°52.129 201.9 3.1 220 11.4
2006-07-26 07:49:36 51°16 2°52.125 201.8 3.1 220 11.4
2006-07-26 07:49:42 51°15.996 2°52.12 201.7 3.1 220 11.5
2006-07-26 07:49:48 51°15.992 2°52.115 201.6 3.1 219 11.5
2006-07-26 07:49:52 51°15.99 2°52.112 201.5 3.1 219 11.4
2006-07-26 07:49:57 51°15.987 2°52.107 201.4 3.1 220 11.4
2006-07-26 07:50:02 51°15.983 2°52.103 201.3 3.1 220 11.4
2006-07-26 07:50:07 51°15.98 2°52.099 201.2 3.1 219 11.4
2006-07-26 07:50:12 51°15.977 2°52.094 201.1 3.1 220 11.4
2006-07-26 07:50:17 51°15.973 2°52.09 201 3.1 219 11.5
2006-07-26 07:50:22 51°15.97 2°52.086 201 3.1 220 11.4
2006-07-26 07:50:27 51°15.967 2°52.082 200.9 3 219 11.5
2006-07-26 07:50:32 51°15.964 2°52.077 200.9 3.1 220 11.4
2006-07-26 07:50:38 51°15.96 2°52.072 200.9 3.1 219 11.5
2006-07-26 07:50:42 51°15.957 2°52.068 200.8 3.1 220 11.4
2006-07-26 07:50:47 51°15.954 2°52.064 200.8 3.1 219 11.5
2006-07-26 07:50:52 51°15.95 2°52.06 200.8 3.1 220 11.4
2006-07-26 07:50:56 51°15.948 2°52.056 200.8 3.1 219 11.5
2006-07-26 07:51:02 51°15.944 2°52.051 200.8 3.1 219 11.5
2006-07-26 07:51:07 51°15.941 2°52.047 200.8 3.1 219 11.5
2006-07-26 07:51:12 51°15.937 2°52.043 200.8 3.1 220 11.5
2006-07-26 07:51:17 51°15.934 2°52.038 200.8 3.1 219 11.5
2006-07-26 07:51:22 51°15.931 2°52.034 200.8 3.1 220 11.5
2006-07-26 07:51:27 51°15.927 2°52.03 200.8 3.1 219 11.5
2006-07-26 07:51:32 51°15.924 2°52.025 201 3.1 220 11.5
2006-07-26 07:51:37 51°15.921 2°52.021 201 3.1 220 11.5
2006-07-26 07:51:42 51°15.918 2°52.017 201 3.1 220 11.5
2006-07-26 07:51:47 51°15.914 2°52.012 201.1 3.1 220 11.5
2006-07-26 07:51:52 51°15.911 2°52.008 201.2 3.1 220 11.5
2006-07-26 07:51:57 51°15.908 2°52.004 201.3 3.1 220 11.5
2006-07-26 07:52:01 51°15.905 2°52 201.4 3.1 220 11.5
2006-07-26 07:52:07 51°15.901 2°51.995 201.5 3.1 220 11.5
2006-07-26 07:52:12 51°15.898 2°51.991 201.5 3.1 220 11.5
2006-07-26 07:52:17 51°15.894 2°51.986 201.6 3.1 221 11.5
2006-07-26 07:52:22 51°15.891 2°51.982 201.6 3 220 11.5
2006-07-26 07:52:27 51°15.888 2°51.978 201.7 3.1 220 11.5
2006-07-26 07:52:33 51°15.884 2°51.972 201.7 3.1 220 11.5
2006-07-26 07:52:37 51°15.881 2°51.969 201.7 3.1 220 11.5
2006-07-26 07:52:41 51°15.879 2°51.965 201.7 3.1 220 11.6
2006-07-26 07:52:47 51°15.875 2°51.96 201.8 3.1 220 11.5
2006-07-26 07:52:52 51°15.872 2°51.955 201.9 3 220 11.5
2006-07-26 07:52:57 51°15.869 2°51.951 201.9 3.1 220 11.5
2006-07-26 07:53:02 51°15.865 2°51.947 202 3.1 220 11.5
2006-07-26 07:53:06 51°15.863 2°51.943 202 3.1 221 11.5
2006-07-26 07:53:12 51°15.859 2°51.938 202.2 3.1 220 11.6
2006-07-26 07:53:17 51°15.856 2°51.933 202.3 3.1 221 11.6
2006-07-26 07:53:22 51°15.853 2°51.929 202.3 3 221 11.6
2006-07-26 07:53:27 51°15.849 2°51.924 202.4 3.1 221 11.6
2006-07-26 07:53:32 51°15.846 2°51.92 202.5 3 221 11.6
2006-07-26 07:53:37 51°15.843 2°51.915 202.5 3 220 11.6
2006-07-26 07:53:42 51°15.84 2°51.911 202.5 3 221 11.6
2006-07-26 07:53:47 51°15.837 2°51.907 202.6 3 221 11.6
2006-07-26 07:53:52 51°15.833 2°51.903 202.7 3 221 11.6
2006-07-26 07:53:57 51°15.83 2°51.898 202.7 3 221 11.6
2006-07-26 07:54:02 51°15.827 2°51.894 202.7 3 220 11.6
2006-07-26 07:54:07 51°15.824 2°51.889 202.8 3.1 220 11.6
2006-07-26 07:54:12 51°15.82 2°51.885 203 3.1 221 11.6
2006-07-26 07:54:16 51°15.818 2°51.881 203 3.1 221 11.6
2006-07-26 07:54:22 51°15.814 2°51.876 203 3.1 221 11.6
2006-07-26 07:54:26 51°15.811 2°51.873 203.1 3.1 221 11.6
2006-07-26 07:54:32 51°15.807 2°51.867 203.1 3 221 11.6
2006-07-26 07:54:37 51°15.804 2°51.863 203.2 3 221 11.6
2006-07-26 07:54:42 51°15.801 2°51.859 203.2 3 221 11.6
2006-07-26 07:54:47 51°15.798 2°51.854 203.2 3 221 11.6
2006-07-26 07:54:52 51°15.795 2°51.85 203.2 3 220 11.6
2006-07-26 07:54:57 51°15.792 2°51.846 203.2 3 222 11.6
2006-07-26 07:55:02 51°15.788 2°51.841 203.2 3 221 11.7
2006-07-26 07:55:07 51°15.785 2°51.837 203.3 3 221 11.6
2006-07-26 07:55:12 51°15.782 2°51.832 203.4 3 221 11.7
2006-07-26 07:55:17 51°15.779 2°51.827 203.5 3 221 11.6
2006-07-26 07:55:22 51°15.776 2°51.823 203.5 3 221 11.7
2006-07-26 07:55:27 51°15.773 2°51.819 203.6 3 221 11.7
2006-07-26 07:55:32 51°15.769 2°51.814 203.8 3 222 11.6
2006-07-26 07:55:37 51°15.766 2°51.81 203.9 3 222 11.7
2006-07-26 07:55:42 51°15.763 2°51.805 204.1 3 221 11.7
2006-07-26 07:55:47 51°15.759 2°51.801 204.1 3 222 11.6
2006-07-26 07:55:52 51°15.756 2°51.797 204.1 3 221 11.6
2006-07-26 07:55:57 51°15.753 2°51.792 204.1 3 222 11.6
2006-07-26 07:56:02 51°15.75 2°51.788 204.2 3 221 11.7
2006-07-26 07:56:06 51°15.747 2°51.784 204.3 3 222 11.7
2006-07-26 07:56:12 51°15.744 2°51.779 204.3 3 221 11.7
2006-07-26 07:56:17 51°15.741 2°51.774 204.5 3 221 11.6
2006-07-26 07:56:22 51°15.737 2°51.77 204.5 3 221 11.6
2006-07-26 07:56:27 51°15.734 2°51.765 204.6 3 222 11.6
2006-07-26 07:56:32 51°15.731 2°51.761 204.6 3 221 11.6
2006-07-26 07:56:37 51°15.728 2°51.756 204.6 3 222 11.6
2006-07-26 07:56:42 51°15.725 2°51.752 204.7 3 221 11.6
2006-07-26 07:56:47 51°15.722 2°51.747 204.8 3 222 11.7
2006-07-26 07:56:52 51°15.719 2°51.743 204.9 3 221 11.6
2006-07-26 07:56:57 51°15.715 2°51.738 205 3 222 11.7
2006-07-26 07:57:02 51°15.712 2°51.734 205.2 3 221 11.7
2006-07-26 07:57:07 51°15.709 2°51.73 205.2 3 222 11.7
2006-07-26 07:57:12 51°15.706 2°51.725 205.4 3 222 11.7
2006-07-26 07:57:17 51°15.703 2°51.721 205.5 3 222 11.7
2006-07-26 07:57:22 51°15.7 2°51.716 205.6 3 223 11.6
2006-07-26 07:57:27 51°15.697 2°51.712 205.8 3 223 11.6
2006-07-26 07:57:32 51°15.694 2°51.707 206.1 3 223 11.7
2006-07-26 07:57:37 51°15.691 2°51.703 206.4 3 223 11.7
2006-07-26 07:57:42 51°15.688 2°51.699 207 3 224 11.7
2006-07-26 07:57:47 51°15.685 2°51.694 207.5 3 224 11.6
2006-07-26 07:57:52 51°15.682 2°51.69 208.2 3 225 11.6
2006-07-26 07:57:57 51°15.679 2°51.685 209 2.9 225 11.7
2006-07-26 07:58:02 51°15.676 2°51.68 209.7 2.9 226 11.7
2006-07-26 07:58:07 51°15.674 2°51.676 210.7 2.9 226 11.7
2006-07-26 07:58:12 51°15.671 2°51.671 211.5 2.9 227 11.7
2006-07-26 07:58:17 51°15.668 2°51.667 212.5 2.9 227 11.7
2006-07-26 07:58:22 51°15.665 2°51.662 213.6 2.9 227 11.7
2006-07-26 07:58:27 51°15.663 2°51.657 214.5 2.8 228 11.7
2006-07-26 07:58:32 51°15.66 2°51.653 215.3 2.8 228 11.7
2006-07-26 07:58:37 51°15.657 2°51.648 216.2 2.8 229 11.7
2006-07-26 07:58:42 51°15.655 2°51.643 217.1 2.8 229 11.8
2006-07-26 07:58:48 51°15.652 2°51.638 218.1 2.8 230 11.7
2006-07-26 07:58:52 51°15.65 2°51.634 219 2.8 230 11.7
2006-07-26 07:58:57 51°15.648 2°51.629 219.8 2.8 230 11.7
2006-07-26 07:59:02 51°15.645 2°51.625 220.5 2.7 231 11.7
2006-07-26 07:59:08 51°15.642 2°51.619 221.3 2.7 231 11.7
2006-07-26 07:59:12 51°15.64 2°51.615 222 2.7 231 11.7
2006-07-26 07:59:17 51°15.638 2°51.611 222.7 2.6 233 11.7
2006-07-26 07:59:22 51°15.636 2°51.606 223.4 2.7 233 11.7
2006-07-26 07:59:27 51°15.634 2°51.602 223.8 2.6 233 11.8
2006-07-26 07:59:32 51°15.632 2°51.597 224.4 2.6 233 11.8
2006-07-26 07:59:37 51°15.63 2°51.592 225.1 2.6 235 11.8
2006-07-26 07:59:42 51°15.627 2°51.588 225.4 2.6 234 11.7
2006-07-26 07:59:46 51°15.626 2°51.584 225.6 2.6 233 11.7
2006-07-26 07:59:52 51°15.623 2°51.578 225.6 2.7 234 11.7
2006-07-26 07:59:57 51°15.621 2°51.574 225.5 2.6 234 11.8
2006-07-26 08:00:02 51°15.619 2°51.569 225.6 2.6 235 11.7
2006-07-26 08:00:07 51°15.617 2°51.564 225.6 2.6 236 11.8
2006-07-26 08:00:12 51°15.615 2°51.559 225.8 2.6 237 11.7
2006-07-26 08:00:18 51°15.613 2°51.553 226 2.6 238 11.7
2006-07-26 08:00:22 51°15.611 2°51.549 226.3 2.6 239 11.8
2006-07-26 08:00:27 51°15.609 2°51.545 226.5 2.6 236 11.7
2006-07-26 08:00:32 51°15.607 2°51.54 226.6 2.6 235 11.7
2006-07-26 08:00:36 51°15.605 2°51.537 226.8 2.6 235 11.8
2006-07-26 08:00:42 51°15.603 2°51.531 226.9 2.6 236 11.8
2006-07-26 08:00:47 51°15.601 2°51.526 227 2.5 237 11.7
2006-07-26 08:00:52 51°15.599 2°51.522 227.2 2.6 236 11.8
2006-07-26 08:00:57 51°15.597 2°51.517 227.2 2.6 236 11.8
2006-07-26 08:01:02 51°15.595 2°51.513 227.3 2.6 236 11.8
2006-07-26 08:01:07 51°15.593 2°51.508 227.4 2.6 236 11.7
2006-07-26 08:01:12 51°15.591 2°51.503 227.5 2.6 237 11.8
2006-07-26 08:01:17 51°15.589 2°51.498 227.5 2.5 238 11.8
2006-07-26 08:01:22 51°15.587 2°51.494 227.5 2.5 236 11.7
2006-07-26 08:01:27 51°15.585 2°51.489 227.7 2.6 235 11.8
2006-07-26 08:01:32 51°15.583 2°51.485 227.9 2.5 236 11.9
2006-07-26 08:01:37 51°15.581 2°51.48 228.3 2.5 237 11.8
2006-07-26 08:01:42 51°15.579 2°51.475 228.6 2.5 237 11.7
2006-07-26 08:01:47 51°15.577 2°51.471 229 2.5 237 11.7
2006-07-26 08:01:52 51°15.575 2°51.466 229.4 2.5 237 11.8
2006-07-26 08:01:57 51°15.573 2°51.461 229.9 2.6 236 11.8
2006-07-26 08:02:02 51°15.571 2°51.457 230.5 2.5 237 11.7
2006-07-26 08:02:07 51°15.569 2°51.452 231 2.6 237 11.8
2006-07-26 08:02:12 51°15.567 2°51.447 231.5 2.5 237 11.8
2006-07-26 08:02:17 51°15.566 2°51.442 232.2 2.5 239 11.8
2006-07-26 08:02:23 51°15.564 2°51.436 232.7 2.5 238 11.8
2006-07-26 08:02:27 51°15.562 2°51.433 233.5 2.5 239 11.8
2006-07-26 08:02:32 51°15.561 2°51.428 234.9 2.5 238 11.8
2006-07-26 08:02:37 51°15.559 2°51.423 236.1 2.5 241 11.8
2006-07-26 08:02:42 51°15.557 2°51.419 237.4 2.5 240 11.8
2006-07-26 08:02:47 51°15.555 2°51.414 239.1 2.6 241 11.8
2006-07-26 08:02:52 51°15.553 2°51.409 240.7 2.7 240 11.8
2006-07-26 08:02:57 51°15.552 2°51.403 242.4 2.7 241 11.8
2006-07-26 08:03:02 51°15.55 2°51.398 244.3 2.8 242 11.8
2006-07-26 08:03:07 51°15.548 2°51.392 245.8 2.8 244 11.8
2006-07-26 08:03:12 51°15.546 2°51.387 248.2 2.9 243 11.8
2006-07-26 08:03:17 51°15.545 2°51.381 250.2 2.9 243 11.9
2006-07-26 08:03:22 51°15.543 2°51.375 252.2 2.9 246 11.8
2006-07-26 08:03:27 51°15.541 2°51.369 254.1 3 247 11.8
2006-07-26 08:03:31 51°15.54 2°51.364 256.2 3 249 11.8
2006-07-26 08:03:36 51°15.539 2°51.358 258 3 248 11.9
2006-07-26 08:03:42 51°15.537 2°51.35 259.8 3 249 11.9
2006-07-26 08:03:47 51°15.536 2°51.344 261.1 3.1 249 11.8
2006-07-26 08:03:51 51°15.534 2°51.339 262.4 3.1 251 11.8
2006-07-26 08:03:57 51°15.533 2°51.331 263.6 3.2 252 11.8
2006-07-26 08:04:02 51°15.531 2°51.324 264.8 3.2 252 11.9
2006-07-26 08:04:07 51°15.53 2°51.317 265.9 3.2 253 11.8
2006-07-26 08:04:12 51°15.529 2°51.31 267 3.2 253 11.9
2006-07-26 08:04:17 51°15.528 2°51.303 267.9 3.3 254 11.9